Regional Weather Roundup
Issued by NWS

Home | Current Version | Previous Version | Graphics & Text | Print | Product List | Glossary On
Versions: 1 2 3 4 5 6 7 8 9 10 11 12 13 14 15 16 17 18 19 20 21 22 23 24 25 26 27 28 29 30 31 32 33 34 35 36 37 38 39 40 41 42 43 44 45 46 47 48 49 50
000
ASUS43 KDTX 010210
RWRMI
MICHIGAN HOURLY REGIONAL WEATHER ROUNDUP
NATIONAL WEATHER SERVICE DETROIT/PONTIAC MI
900 PM EST SAT JAN 31 2015

NOTE: "FAIR" INDICATES FEW OR NO CLOUDS BELOW 12,000 FEET WITH NO
SIGNIFICANT WEATHER AND/OR OBSTRUCTION TO VISIBILITY.

MIZ047>049-052>055-059>063-066>070-074>076-081>083-010300-
SOUTHEAST LOWER MICHIGAN

CITY           SKY/WX    TMP DP  RH WIND       PRES   REMARKS
ADRIAN         MOCLDY    29  24  82 SW5       30.18F
ALMA           CLOUDY    30  25  80 N5        30.19R
ANN ARBOR      CLOUDY    32  24  72 W3        30.18R
BAD AXE        CLOUDY    28  24  86 NW12      30.18S
DETROIT CITY   CLOUDY    35  23  61 SW8       30.18S
DETROIT        CLOUDY    33  24  69 SW7       30.19S
FLINT          CLOUDY    33  25  72 NW7       30.18R
GROSSE ILE     CLOUDY    32  27  80 SW5       30.18R
HILLSDALE      CLOUDY    30  22  72 CALM      30.15F
HOWELL         CLOUDY    32  22  66 CALM      30.17R

CITY           SKY/WX    TMP DP  RH WIND       PRES   REMARKS
JACKSON        CLOUDY    31  22  69 W3        30.16S
LAMBERTVILLE   MOCLDY    32  27  80 S5        30.19F
LANSING        CLOUDY    31  25  78 NW5       30.18R
LAPEER         NOT AVBL
MASON          CLOUDY    31  23  72 CALM      30.17R
MONROE         CLOUDY    30  25  80 SW5       30.18S
MT. CLEMENS    CLOUDY    30  25  79 SE2       30.16S
PONTIAC        CLOUDY    31  21  66 CALM      30.16R
PORT HOPE        N/A     28  21  75 NW7       30.17S
PORT HURON     CLOUDY    28  23  80 CALM      30.18S
TRI CITIES     CLOUDY    30  23  75 N10       30.20R
YPSILANTI      CLOUDY    34  25  69 SW8       30.19R
$$
MIZ043>046-050>051-056>058-064>065-071>073-077>080-010300-
SOUTHWEST LOWER MICHIGAN

CITY           SKY/WX    TMP DP  RH WIND       PRES   REMARKS
BATTLE CREEK   CLOUDY    32  24  72 NW3       30.17R
BENTON HARBOR  CLOUDY    31  26  82 CALM      30.18S
BIG RAPIDS     CLOUDY    27  23  87 N6        30.18S
COLDWATER      CLOUDY    32  27  80 SW3       30.16S
HOLLAND        CLOUDY    32  24  72 CALM      30.19S
GRAND RAPIDS   CLOUDY    31  24  75 NW5       30.18S
KALAMAZOO      CLOUDY    31  24  75 NW3       30.17S
MARSHALL       CLOUDY    29  23  76 CALM      30.16S
MUSKEGON       CLOUDY    31  23  72 N6        30.20R
$$
MIZ016>042-010300-
NORTHERN LOWER MICHIGAN

CITY           SKY/WX    TMP DP  RH WIND       PRES   REMARKS
ALPENA         MIX PCPN  20  14  77 N18       30.22R
BEAVER ISLAND  PTCLDY    16  10  75 CALM      30.27S
BELLAIRE       MOCLDY    20  11  70 N7        30.26S
CADILLAC       FLURRIES  21  17  84 N7        30.17R
CHARLEVOIX     CLOUDY    19  11  70 N10G16    30.29S
FRANKFORT      CLOUDY    24  16  72 N3        30.25R
GAYLORD        FLURRIES  16  11  80 VRB6      30.19R
GRAYLING       FLURRIES  19  14  79 N10       30.20R
HARBOR SPRINGS PTCLDY    16   7  68 CALM      30.26S
HOUGHTON LAKE  CLOUDY    23  16  74 N10       30.18R
MANISTEE       CLOUDY    27  18  69 NE9       30.23R
OSCODA         CLOUDY    26  19  75 N9        30.19S
PELLSTON       CLOUDY    17   8  67 N12       30.26S
TRAVERSE CITY  CLOUDY    23  14  68 N13G21    30.24R
$$
MIZ007>008-015-010300-
EASTERN UPPER MICHIGAN

CITY           SKY/WX    TMP DP  RH WIND       PRES   REMARKS
KINROSS        PTCLDY    10   5  79 N7        30.25R
MACKINAC ISLAN MOCLDY    16   8  71 N10G17    30.24S
NEWBERRY       CLOUDY    13   8  80 N8        30.26S
S. S. MARIE    CLOUDY    12   1  61 N9        30.26R
$$
MIZ004>006-011>014-085-010300-
CENTRAL UPPER MICHIGAN

CITY           SKY/WX    TMP DP  RH WIND       PRES   REMARKS
MANISTIQUE     CLOUDY    13   8  79 NW5       30.28S
ESCANABA       MOCLDY    14   3  62 N8G21     30.31S
MENOMINEE      CLOUDY    18   9  68 NE15G22   30.28R
SAWYER-GWINN   LGT SNOW  10   5  79 N18       30.27F WCI  -8
$$
MIZ001>003-009>011-084-010300-
WESTERN UPPER MICHIGAN

CITY           SKY/WX    TMP DP  RH WIND       PRES   REMARKS
IRON MOUNTAIN  CLOUDY    14   5  67 NE10      30.25S
HOUGHTON       CLOUDY     6  -3  66 N9        30.34S
COPPER HARBOR    N/A     11   5  77 NE21G28   30.38R WCI  -8
IRONWOOD       CLOUDY    12   7  79 NE9       30.26F
$$

ABBREVIATIONS USED IN REMARKS
   TC - TEMPERATURE IN CELSIUS
  WCI - WIND CHILL INDEX
   HX - HEAT INDEX
  VSB - VISIBILITY




USA.gov is the U.S. government's official web portal to all federal, state and local government web resources and services.